Other Surface Observations
Issued by NWS

Home | Current Version | Previous Version | Text Only | Print | Product List | Glossary On
Versions: 1 2 3 4 5 6 7 8 9 10 11 12 13 14 15 16 17 18 19 20 21 22 23 24 25 26 27 28 29 30 31 32 33 34 35 36 37 38 39 40 41 42 43 44 45 46 47 48 49 50
000
SXUS52 KTAE 260718
OSOTAE
OSOTAE
North Florida/South Alabama/Southwest Georgia Weather Roundup
National Weather Service Tallahassee Florida
200 AM EST FRI DEC 26 2014

Note: "fair" indicates few or no clouds below 12,000 feet with no
significant weather and/or obstructions to visibility.

!FLZ017-115-028-034-025-260800
...North Florida...

CITY           SKY/WX    TMP DP  RH WIND       PRES   REMARKS
TALLAHASSEE    CLEAR     38  34  85 CALM      30.25R
APALACHICOLA   CLEAR     44  40  85 NE6       30.24R WCI  41
PERRY          PTCLDY    38  38  98 CALM      30.26R
CROSS CITY       N/A     38  36  92 N3        30.24S
JACKSONVILLE   PTCLDY    41  41 100 CALM      30.25S
$$

!FLZ112-006-005-002-011-260800
...Florida Panhandle...

CITY           SKY/WX    TMP DP  RH WIND       PRES   REMARKS
MARIANNA       CLEAR     38  38 100 CALM      30.25R
BONIFAY        NOT AVBL
PANAMA CITY NW FAIR      40  37  89 CALM        N/A
TYNDALL AFB    PTCLDY    45  43  93 E5        30.25R WCI  42
TYND DRONE APT FAIR      45  42  91 E6        30.24R WCI  42
DE FUNIAK SPR  FAIR      39  38  97 CALM      30.24R
EGLIN AFB      PTCLDY    39  36  89 N2        30.23S
DESTIN         FOG       43  41  93 CALM      30.24R VSB 1
HURLBURT       PTCLDY    39  36  87 CALM      30.22S
CRESTVIEW      PTCLDY    33  32  96 CALM      30.24F FOG
PENSACOLA      MOCLDY    44  42  93 NE5       30.21F WCI  42
$$

!ALZ063-066-260800
...South Alabama...

CITY           SKY/WX    TMP DP  RH WIND       PRES   REMARKS
DOTHAN         CLEAR     39  37  92 CALM      30.27F
OZARK CAIRNS   CLEAR     37  35  90 NE3       30.23F
FT RUCKER HELI FOG       34  33  96 CALM      30.23F VSB 1/2
RUCKER HELI 3  FAIR      35  35 100 E1        30.25F
RUCKER HELI 2  FAIR      35  33  92 CALM      30.23S
FLORALA APT    PTCLDY    36  34  92 CALM      30.24F
ANDALUSIA      FAIR      38  34  85 CALM      30.23F
TROY           CLEAR     33  30  88 CALM      30.24F
EUFALA         FOG       33  32  96 CALM      30.24F VSB 1/4
MOBILE         PTCLDY    42  40  92 E5        30.21S WCI  39
$$

!GAZ120>161-260800
...Southwest and South Central Georgia...

CITY           SKY/WX    TMP DP  RH WIND       PRES   REMARKS
THOMASVILLE    FAIR      41  41 100 CALM      30.27R
BAINBRIDGE     CLEAR     41  39  93 CALM      30.26R
MOODY AFB      CLEAR     38  37  94 CALM      30.25R
VALDOSTA       PTCLDY    39  37  92 CALM      30.26R FOG
MOULTRIE       CLEAR     39  39 100 CALM      30.26R
BLAKELY        CLEAR     37  36  93 CALM      30.26S
ALBANY         CLEAR     37  35  92 CALM      30.28R
TIFTON         FAIR      38  38 100 CALM      30.26R
FITZGERALD     FAIR      40  38  91 CALM      30.28R FOG
CORDELE        FAIR      38  37  95 CALM      30.28R
AMERICUS       FAIR      36  36 100 CALM      30.28R
HOMERVILLE     FAIR      41  41 100 CALM      30.26R FOG
$$

!GMZ750-755-770-775-260800
...Coastal and Buoy Obs...

STATION/POSITION TIME  TEMP    WIND        PRES    VSBY  WAVE
                       AIR SEA DIR/SP/G                  HT/PER
                 (UTC) (F)     (DEG/KT/KT) (MB)    (MI)  (FT/S)
KEATON BEACH     0700   44      50/  4/  6 1024.1S
CEDAR KEY        0700   52      60/ 10/ 12 1024.1F
C TOWER          0700   56      70/ 11/ 12 1023.5R
APALACHICOLA BUO 0700   61 71   80/ 10/ 14 1023.1R         3/ 6
PANAMA CITY BUOY 0616   60 74   90/ 10/ 14 1023.6R         2/ 8
MOBILE BUOY      0700   61 74  120/ 14/ 19 1022.3R         3/ 3
ORANGE BCH AL BU 0700   59 67  100/ 12/ 16 1022.2F         2/ 8
$$



USA.gov is the U.S. government's official web portal to all federal, state and local government web resources and services.